Regional Weather Roundup
Issued by NWS

Home | Current Version | Previous Version | Graphics & Text | Print | Product List | Glossary On
Versions: 1 2 3 4 5 6 7 8 9 10 11 12 13 14 15 16 17 18 19 20 21 22 23 24 25 26 27 28 29 30 31 32 33 34 35 36 37 38 39 40 41 42 43 44 45 46 47 48 49 50
000
ASUS45 KTFX 242010
RWRMT
MONTANA REGIONAL WEATHER ROUNDUP
NATIONAL WEATHER SERVICE GREAT FALLS MT
100 PM MST FRI FEB 24 2017

NOTE: "FAIR" INDICATES FEW OR NO CLOUDS BELOW 12000 FEET WITH NO
SIGNIFICANT WEATHER AND/OR OBSTRUCTIONS TO VISIBILITY.

MTZ001>007-043-242100-
WEST OF THE DIVIDE

CITY           SKY/WX    TMP DP  RH WIND       PRES   REMARKS
KALISPELL      FLURRIES  29  18  63 CALM      30.10F
MISSOULA       MOSUNNY   32  15  49 W6        30.09S WCI  26
BUTTE          FLURRIES  24  14  65 VRB3      29.94S
MULLAN PASS    MOSUNNY   20  15  81 VRB5      29.96S
ANACONDA         N/A     27  16  63 NE8       29.97S WCI  18
DEER LODGE       N/A     27  10  50 NW7       30.01S WCI  19
EUREKA           N/A     27  18  69 CALM      30.14F
HAMILTON         N/A     32  12  43 CALM      30.05F
LIBBY            N/A     28  18  64 CALM      30.12F
RONAN            N/A     33  21  61 CALM      30.13S
$$

MTZ008-052>055-242100-
SOUTHWEST MONTANA

CITY           SKY/WX    TMP DP  RH WIND       PRES   REMARKS
BOZEMAN        CLOUDY    28  19  69 CALM      29.98S
DILLON         CLOUDY    27  14  58 SE6       29.93F WCI  20
W YELLOWSTONE  CLOUDY    18   9  68 SW14      29.89F HAZE    WCI   4
ENNIS          SUNNY     25  14  63 VRB6      29.98S WCI  18
THREE FORKS      N/A     32 -32   5 CALM      29.98S
TWIN BRIDGES     N/A     31  10  41 W3        29.95R
$$

MTZ009-010-012-014-046-048-049-054-242100-
EAST SLOPES AND CENTRAL MONTANA

CITY           SKY/WX    TMP DP  RH WIND       PRES   REMARKS
CUT BANK       SUNNY     28  17  63 NW12      30.01F WCI  18
GREAT FALLS    PTSUNNY   29  18  63 NW7       30.01S WCI  22
MALMSTROM AFB  PTSUNNY   30  19  64 W8        30.03S WCI  22
HELENA         CLOUDY    32  15  49 W9        29.99S WCI  24
AUGUSTA          N/A     26  11  52 N8        29.98R WCI  18
BOWMANS CRNR     N/A     28  13  53 N7        29.96F WCI  20
CHOTEAU          N/A     30  16  55 NE10      30.02F WCI  21
CONRAD           N/A     28  16  61 NW5       30.04S
POWER          PTSUNNY   28  16  60 N10       30.01R WCI  19
RAYNESFORD     FLURRIES  26  20  76 NW7       30.00S WCI  19
ULM            PTSUNNY   29  18  63 MISG      30.01F
$$

MTZ011-013-016-021-045-047-050-051-242100-
NORTH CENTRAL MONTANA

CITY           SKY/WX    TMP DP  RH WIND       PRES   REMARKS
HAVRE          CLOUDY    29  25  85 CALM      30.06S
LEWISTOWN      CLOUDY    26  18  71 W7        29.97F WCI  18
N BAR RANCH    CLOUDY    25  19  80 CALM      29.98S HAZE
CHINOOK          N/A     30  27  86 W6        30.06F WCI  24
DENTON         PTSUNNY   27  22  80 NE9G18    29.97F WCI  18
FORT BENTON      N/A     30  21  69 N2        30.07S
GEYSER         PTSUNNY   28  18  67 W13       29.98S WCI  17
GRASS RANGE    PTSUNNY   28  21  75 W8        29.95F WCI  20
JUDITH GAP     PTSUNNY   23  14  69 SW9       29.95S WCI  13
ROY            FLURRIES  28  23  84 MISG      29.98F
STANFORD       LGT RAIN  26  19  74 NE5       29.96F
WINIFRED         N/A     27  22  82 W9        29.99F WCI  17
$$

MTZ017>020-022>027-061-062-242100-
NORTHEAST MONTANA

CITY           SKY/WX    TMP DP  RH WIND       PRES   REMARKS
GLASGOW        CLOUDY    30  24  78 S10       30.07F HAZE    WCI  21
JORDAN           N/A     33  23  66 S7        30.04F WCI  27
SIDNEY         CLOUDY    28  15  58 S14       30.12F WCI  17
WOLF POINT     CLOUDY    31  22  69 S10       30.10F WCI  22
PLENTYWOOD       N/A     28  16  59 S8        30.09F WCI  20
$$

MTZ028>42-056>058-242100-
SOUTHCENTRAL AND SOUTHEAST MONTANA

CITY           SKY/WX    TMP DP  RH WIND       PRES   REMARKS
BAKER          PTSUNNY   29  14  53 S8        30.06F WCI  21
BILLINGS       CLOUDY    28  24  85 N5        29.99S
LIVINGSTON     CLOUDY    25  16  68 S3        29.95F
MILES CITY     CLOUDY    31  20  63 S6        30.06F WCI  25
BIG TIMBER     SUNNY     25  18  74 CALM      29.99S
FORSYTH          N/A     32  21  64 E8        30.04F WCI  25
HARLOWTON      PTSUNNY   24  18  76 SW5       29.97S
LAUREL           N/A     34  24  67 CALM      29.98S
$$

REGIONAL REPORTS...DAKOTAS

CITY           SKY/WX    TMP DP  RH WIND       PRES   REMARKS
WILLISTON      CLOUDY    27  15  61 S10       30.12F WCI  17
MINOT          SUNNY     30  15  53 N7        30.11F WCI  23
DICKINSON      CLOUDY    23  10  57 CALM      30.08F
BEACH            N/A    N/A N/A N/A MISG        N/A
CROSBY           N/A     28  18  64 SW14      30.12F WCI  17
TIOGA          PTSUNNY   25  16  68 W13       30.11F WCI  13
WATFORD CITY   CLOUDY    25  16  68 SW7       30.12F WCI  17
BISMARCK       SUNNY     30  18  60 N12       30.13F WCI  20
GRAND FORKS    PTSUNNY   20   9  62 N17       30.12F WCI   5
FARGO          PTSUNNY   25  15  66 N23       30.07F WCI  10
BUFFALO SD       N/A     27  11  51 S3        30.00F
RAPID CITY     CLOUDY    21  16  81 S3        30.05F
$$

REGIONAL REPORTS...WYOMING/IDAHO/WASHINGTON

CITY           SKY/WX    TMP DP  RH WIND       PRES   REMARKS
GILLETTE       CLOUDY    26  19  74 S9        29.96F WCI  17
SHERIDAN       CLOUDY    27  20  75 SE16G23   29.96F WCI  15
BUFFALO WY     CLOUDY    24  17  74 S13       29.92F WCI  12
CODY           CLOUDY    27  17  66 NE7       29.93F WCI  19
YELLOWSTONE LA   N/A     13  10  88 CALM      29.85S
IDAHO FALLS    LGT SNOW  20  17  88 SW21G30   30.02R FOG     WCI   4
SALMON         CLOUDY    30  12  47 CALM      29.98F
BOISE            N/A    N/A N/A N/A MISG        N/A
SPOKANE        PTSUNNY   30  25  81 SE3       30.15S
$$

REGIONAL REPORTS...ALBERTA

CITY           SKY/WX    TMP DP  RH WIND       PRES   REMARKS
EDMONTON       PTSUNNY   16   7  67 NW12      30.20S WCI   3
CALGARY        SNOW      19  16  86 N14       30.07S VSB 3/8 WCI   6
LETHBRIDGE     LGT SNOW  25  23  93 W5        30.07S FOG
MEDICINE HAT   PTSUNNY   30  19  64 CALM      30.08S
WATERTON GATE    N/A     25  14  63 NE7         N/A  WCI  17
CARDSTON         N/A     27  16  63 N5          N/A
MILK RIVER       N/A     27  19  74 NW17        N/A  WCI  14
$$

REGIONAL REPORTS...SASKATCHEWAN

CITY           SKY/WX    TMP DP  RH WIND       PRES   REMARKS
SWIFT CURRENT  CLOUDY    27  19  74 NW8       30.03S WCI  18
REGINA         FLURRIES  28  19  69 SW10      30.06F WCI  19
SASKATOON      CLOUDY    27  18  69 NW7       30.09F WCI  19
CYPRESS HILLS    N/A     21  18  86 N5          N/A
VAL MARIE        N/A     28  25  86 S7          N/A  WCI  21
ROCKGLEN         N/A     27  25  93 SW12        N/A  WCI  16
$$



USA.gov is the U.S. government's official web portal to all federal, state and local government web resources and services.